Weather History for KEWN - November, 2013

Change the Weather History Date:

Tuesday, November 5, 2013

  Actual Average Record
Temperature  
Mean Temperature 61 °F 58 °F  
Max Temperature 75 °F 69 °F 86 °F (2003)
Min Temperature 46 °F 47 °F 28 °F (1966)
Degree Days  
Heating Degree Days 4 8  
Month to date heating degree days 26 36  
Since 1 July heating degree days 102 153  
Cooling Degree Days 0 1  
Month to date cooling degree days 11 5  
Year to date cooling degree days 2001 1890  
Growing Degree Days 10 (Base 50)    
Moisture  
Dew Point 50 °F    
Average Humidity 69    
Maximum Humidity 93    
Minimum Humidity 44    
Precipitation  
Precipitation 0.00 in 0.11 in 1.10 in (1953)
Month to date precipitation 0.79 0.53  
Year to date precipitation 36.62 46.48  
Snow  
Snow 0.00 in - - ()
Month to date snowfall 0.0  
Since 1 July snowfall 0.0  
Snow Depth 0.00 in    
Sea Level Pressure  
Sea Level Pressure 30.44 in    
Wind  
Wind Speed 8 mph (NNE)    
Max Wind Speed 16 mph    
Max Gust Speed 22 mph    
Visibility 10 miles    
Events      
T = Trace of Precipitation, MM = Missing Value Source: NWS Daily Summary

Daily Weather History Graph

Daily Weather History Graph

Search for Another Location

Airport or City:

Trip Planner

Search our weather history database for the weather conditions in past years. The results will help you decide how hot, cold, wet, or windy it might be!

Date:

Astronomy

Nov. 05, 2013 Rise Set
Actual Time 6:33 AM EST 5:09 PM EST
Civil Twilight 6:06 AM EST 5:36 PM EST
Nautical Twilight 5:36 AM EST 6:06 PM EST
Astronomical Twilight 5:07 AM EST 6:36 PM EST
Moon 8:42 AM EST (11/5) 7:12 PM EST (11/5)
Length of Visible Light 11h 29m
Length of Day
10h 36m
Waxing Crescent, 6% of the Moon is Illuminated
Nov 5
Waxing Crescent
Nov 10
First Quarter
Nov 17
Full
Nov 25
Last Quarter
Dec 2
New

Hourly Weather History & Observations

Time (EST) Temp. Dew Point Humidity Pressure Visibility Wind Dir Wind Speed Gust Speed Precip Events Conditions
12:54 AM 48.0 °F 44.1 °F 86% 30.48 in 10.0 mi North 6.9 mph - N/A   Overcast
1:54 AM 48.0 °F 44.1 °F 86% 30.45 in 10.0 mi North 8.1 mph - N/A   Overcast
2:54 AM 48.9 °F 45.0 °F 86% 30.45 in 10.0 mi NNW 6.9 mph - N/A   Mostly Cloudy
3:54 AM 48.9 °F 45.0 °F 86% 30.44 in 10.0 mi North 6.9 mph - N/A   Mostly Cloudy
4:54 AM 51.1 °F 46.9 °F 86% 30.45 in 10.0 mi North 6.9 mph - N/A   Overcast
5:54 AM 50.0 °F 45.0 °F 83% 30.45 in 10.0 mi North 9.2 mph - N/A   Overcast
6:54 AM 51.1 °F 46.9 °F 86% 30.45 in 10.0 mi North 8.1 mph - N/A   Overcast
7:54 AM 54.0 °F 48.9 °F 83% 30.47 in 10.0 mi North 5.8 mph - N/A   Overcast
8:54 AM 59.0 °F 51.1 °F 75% 30.48 in 10.0 mi North 8.1 mph - N/A   Mostly Cloudy
9:54 AM 66.0 °F 55.0 °F 68% 30.48 in 10.0 mi NNE 15.0 mph 19.6 mph N/A   Clear
10:54 AM 68.0 °F 55.0 °F 63% 30.48 in 10.0 mi NE 10.4 mph - N/A   Overcast
11:54 AM 72.0 °F 53.1 °F 51% 30.44 in 10.0 mi ENE 15.0 mph 21.9 mph N/A   Clear
12:54 PM 73.9 °F 50.0 °F 43% 30.42 in 10.0 mi East 11.5 mph 19.6 mph N/A   Clear
1:54 PM 73.0 °F 52.0 °F 48% 30.42 in 10.0 mi East 11.5 mph - N/A   Overcast
2:54 PM 71.1 °F 52.0 °F 51% 30.42 in 10.0 mi ENE 12.7 mph 18.4 mph N/A   Overcast
3:54 PM 70.0 °F 52.0 °F 53% 30.42 in 10.0 mi East 11.5 mph 18.4 mph N/A   Overcast
4:54 PM 66.0 °F 54.0 °F 65% 30.42 in 10.0 mi East 4.6 mph - N/A   Overcast
5:54 PM 63.0 °F 53.1 °F 70% 30.44 in 10.0 mi ENE 3.5 mph - N/A   Clear
6:54 PM 61.0 °F 53.1 °F 75% 30.45 in 10.0 mi NE 6.9 mph - N/A   Clear
7:54 PM 57.9 °F 50.0 °F 75% 30.44 in 10.0 mi NNE 5.8 mph - N/A   Clear
8:54 PM 55.9 °F 50.0 °F 80% 30.44 in 10.0 mi NNE 5.8 mph - N/A   Clear
9:54 PM 55.9 °F 51.1 °F 84% 30.43 in 10.0 mi NNE 5.8 mph - N/A   Clear
10:54 PM 54.0 °F 51.1 °F 90% 30.42 in 10.0 mi NNE 5.8 mph - N/A   Clear
11:54 PM 54.0 °F 52.0 °F 93% 30.42 in 10.0 mi North 6.9 mph - N/A   Clear